Tracking 19170 objects as of 23-May-2018
HD Live streaming from Space Station
objects crossing your sky now

SINAH 1

Track SINAH 1 now!
10-day predictions
SINAH 1 is classified as:


NORAD ID: 28893
Int'l Code: 2005-043D
Perigee: 684.4 km
Apogee: 706.7 km
Inclination: 97.9 °
Period: 98.5 minutes
Semi major axis: 7066 km
RCS: 0.8773 m2 (medium)
Launch date: October 27, 2005
Source: Iran (IRAN)
Launch site: PLESETSK MISSILE AND SPACE COMPLEX (PKMTR)

Sinah 1 is an Iranian microsatellite (170 kg). Iranian press reports that it is intended for "telecommunications and research".
aabbcc
Your satellite tracking list
Your tracking list is empty




NASA's NSSDC Master Catalog

Two Line Element Set (TLE):
1 28893U 05043D   18143.02015723  .00000004  00000-0  97921-5 0  9996
2 28893  97.9188 290.7487 0015831 157.3320 202.8584 14.61474768670099
Source of the keplerian elements: AFSPC